FALCON 9 DEB (47681 NORAD) Tracking and Keplerian Element Data
This shows tracking and keplerian element data for the satellite.
Feedback or suggestion? Click here.
Element | Value |
Catalog | 47681 |
Name | FALCON 9 DEB |
Epoch Orbit | 191 |
Epoch Day | 57.13491572 |
Epoch Year | 2021 |
RAAN | 51.5868 |
Inclination | 53.05 |
Eccentricity | 0.0018538 |
Argument of Perigee | 257.6697 |
Mean Anonmoly | 102.226 |
Mean Motion | 16.06828444 |
Decay Rate | 0.00372675 |
L1 | 1 47681U 21012BP 21057.13491572 .00372675 76481-4 46355-3 0 9995 |
L2 | 2 47681 53.0500 51.5868 0018538 257.6697 102.2260 16.06828444 1918 |
Live tracking and technical data element details for FALCON 9 DEB (NORAD 47681). FALCON 9 DEB can be tracked NOW for your location showing map with azimuth and elevation plus other details from your city location.
Track the satellite on the map from your city or location and see movement details for azimuth, elevation, latitude, longitude, range, height, and movement on the map or in text.
IsCatalogInMostPopularTable: catalog: 47681, numindb: 1
Update: records affected: 1
GetName: 47681 FALCON 9 DEB
Hit Count: updated at: Fri, 26 Feb 2021 10:09:10 GMT